Location: Unspecified
(0.0000°N, 0.0000°E)
Time: 17:14:11
(UTC+00:00)

FREGAT DEB - Pass Details

Date: 22 December 2025
Orbit: 415 x 1397 km, 51.3° (Epoch: 24 January)

Event Time Altitude Azimuth Distance (km) Brightness Sun altitude
Exits shadow 04:09:03 28° 209° (SSW) 1,217 ? -25.0°
Drops below altitude 10° 04:12:46 10° 168° (SSE) 2,311 ? -24.1°
Sets 04:15:52 0° 159° (SSE) 3,455 ? -23.4°
